• In Österreich
  • Länderverzeichnis
  • Für 7 Tage
  • Wassertemperatur
  • Satellitenkarten
  • Wetterkarte
  • News
  • Widgets
  • user-avatar
    Anmelden

    Stündliche Wetter Namibe

    Heute, 17 Dezember, Sonntag

    Zeit Temperatur Niederschläge Wind Luftdruck Luftfeuchtigkeit
    00:00 +28°C° 0,1 mm 4 m/S 757 mmHg 55%
    01:00 +28°C° 0,1 mm 4 m/S 757 mmHg 54%
    02:00 +28°C° 0 mm 4 m/S 756 mmHg 56%
    03:00 +27°C° 0 mm 4 m/S 756 mmHg 59%
    04:00 +27°C° 0 mm 4 m/S 756 mmHg 61%
    05:00 +27°C° 0 mm 3 m/S 756 mmHg 60%
    06:00 +27°C° 0 mm 3 m/S 757 mmHg 60%
    07:00 +27°C° 0 mm 2 m/S 757 mmHg 59%
    08:00 +29°C° 0 mm 3 m/S 757 mmHg 55%
    09:00 +31°C° 0 mm 3 m/S 757 mmHg 50%
    10:00 +34°C° 0 mm 3 m/S 757 mmHg 46%
    11:00 +35°C° 0 mm 4 m/S 757 mmHg 45%
    12:00 +36°C° 0 mm 5 m/S 756 mmHg 44%
    13:00 +36°C° 0 mm 5 m/S 756 mmHg 43%
    14:00 +35°C° 0 mm 6 m/S 756 mmHg 46%
    15:00 +34°C° 0 mm 6 m/S 756 mmHg 49%
    16:00 +33°C° 0 mm 6 m/S 755 mmHg 52%
    17:00 +30°C° 0 mm 5 m/S 756 mmHg 55%
    18:00 +29°C° 0 mm 4 m/S 757 mmHg 58%
    19:00 +28°C° 0 mm 4 m/S 757 mmHg 61%
    20:00 +28°C° 0 mm 3 m/S 758 mmHg 59%
    21:00 +28°C° 0 mm 2 m/S 758 mmHg 58%
    22:00 +28°C° 0 mm 1 m/S 759 mmHg 57%
    23:00 +28°C° 0,1 mm 2 m/S 758 mmHg 57%

    Morgen, 18 Dezember, Montag

    Zeit Temperatur Niederschläge Wind Luftdruck Luftfeuchtigkeit
    00:00 +29°C° 0,1 mm 2 m/S 758 mmHg 58%
    01:00 +29°C° 0,1 mm 2 m/S 758 mmHg 58%
    02:00 +28°C° 0 mm 2 m/S 758 mmHg 61%
    03:00 +28°C° 0 mm 2 m/S 757 mmHg 64%
    04:00 +27°C° 0 mm 2 m/S 757 mmHg 67%
    05:00 +27°C° 0 mm 2 m/S 757 mmHg 68%
    06:00 +27°C° 0 mm 2 m/S 758 mmHg 69%
    07:00 +27°C° 0 mm 1 m/S 758 mmHg 70%
    08:00 +29°C° 0 mm 2 m/S 758 mmHg 65%
    09:00 +30°C° 0 mm 3 m/S 758 mmHg 60%
    10:00 +33°C° 0 mm 3 m/S 758 mmHg 54%
    11:00 +34°C° 0 mm 4 m/S 757 mmHg 53%
    12:00 +34°C° 0 mm 4 m/S 757 mmHg 51%
    13:00 +35°C° 0 mm 5 m/S 756 mmHg 49%
    14:00 +34°C° 0 mm 5 m/S 756 mmHg 51%
    15:00 +33°C° 0 mm 5 m/S 756 mmHg 53%
    16:00 +33°C° 0 mm 5 m/S 755 mmHg 55%
    17:00 +30°C° 0 mm 4 m/S 756 mmHg 60%
    18:00 +29°C° 0 mm 4 m/S 756 mmHg 65%
    19:00 +28°C° 0 mm 3 m/S 756 mmHg 71%
    20:00 +28°C° 0 mm 3 m/S 757 mmHg 72%
    21:00 +27°C° 0 mm 2 m/S 757 mmHg 74%
    22:00 +27°C° 0 mm 2 m/S 758 mmHg 76%
    23:00 +27°C° 0 mm 1 m/S 757 mmHg 77%

    übermorgen, 19 Dezember, Dienstag

    Zeit Temperatur Niederschläge Wind Luftdruck Luftfeuchtigkeit
    00:00 +27°C° 0 mm 1 m/S 757 mmHg 78%
    01:00 +26°C° 0 mm 1 m/S 756 mmHg 79%
    02:00 +26°C° 0 mm 1 m/S 756 mmHg 79%
    03:00 +26°C° 0 mm 1 m/S 756 mmHg 79%
    04:00 +26°C° 0 mm 1 m/S 756 mmHg 80%
    05:00 +26°C° 0 mm 1 m/S 756 mmHg 79%
    06:00 +27°C° 0 mm 1 m/S 756 mmHg 78%
    07:00 +27°C° 0 mm 1 m/S 757 mmHg 78%
    08:00 +28°C° 0 mm 1 m/S 757 mmHg 73%
    09:00 +29°C° 0 mm 1 m/S 757 mmHg 68%
    10:00 +30°C° 0 mm 2 m/S 757 mmHg 63%
    11:00 +31°C° 0 mm 3 m/S 757 mmHg 59%
    12:00 +34°C° 0 mm 4 m/S 756 mmHg 55%
    13:00 +35°C° 0 mm 5 m/S 756 mmHg 51%
    14:00 +34°C° 0 mm 5 m/S 756 mmHg 53%
    15:00 +33°C° 0 mm 5 m/S 755 mmHg 54%
    16:00 +32°C° 0 mm 6 m/S 755 mmHg 56%
    17:00 +30°C° 0 mm 5 m/S 755 mmHg 62%
    18:00 +29°C° 0 mm 4 m/S 756 mmHg 68%
    19:00 +27°C° 0 mm 3 m/S 756 mmHg 74%
    20:00 +27°C° 0 mm 3 m/S 757 mmHg 74%
    21:00 +27°C° 0 mm 3 m/S 757 mmHg 74%
    22:00 +27°C° 0 mm 2 m/S 758 mmHg 75%
    23:00 +27°C° 0 mm 2 m/S 758 mmHg 75%

    20 Dezember, Mittwoch

    Zeit Temperatur Niederschläge Wind Luftdruck Luftfeuchtigkeit
    00:00 +27°C° 0 mm 2 m/S 757 mmHg 75%
    01:00 +27°C° 0 mm 1 m/S 757 mmHg 75%
    02:00 +27°C° 0 mm 1 m/S 756 mmHg 76%
    03:00 +26°C° 0 mm 1 m/S 756 mmHg 77%
    04:00 +26°C° 0 mm 1 m/S 756 mmHg 78%
    05:00 +26°C° 0 mm 1 m/S 756 mmHg 78%
    06:00 +26°C° 0 mm 1 m/S 757 mmHg 78%
    07:00 +27°C° 0 mm 1 m/S 757 mmHg 77%
    08:00 +27°C° 0 mm 1 m/S 757 mmHg 75%
    09:00 +28°C° 0 mm 1 m/S 758 mmHg 73%
    10:00 +28°C° 0 mm 1 m/S 758 mmHg 70%
    11:00 +29°C° 0 mm 2 m/S 757 mmHg 69%
    12:00 +29°C° 0 mm 3 m/S 757 mmHg 69%
    13:00 +29°C° 0 mm 3 m/S 757 mmHg 68%
    14:00 +29°C° 0 mm 4 m/S 756 mmHg 70%
    15:00 +28°C° 0 mm 4 m/S 756 mmHg 71%
    16:00 +28°C° 0 mm 4 m/S 756 mmHg 73%
    17:00 +27°C° 0 mm 4 m/S 756 mmHg 75%
    18:00 +27°C° 0 mm 3 m/S 757 mmHg 78%
    19:00 +26°C° 0 mm 3 m/S 757 mmHg 80%
    20:00 +26°C° 0 mm 3 m/S 758 mmHg 81%
    21:00 +26°C° 0 mm 2 m/S 759 mmHg 82%
    22:00 +26°C° 0 mm 2 m/S 759 mmHg 83%
    23:00 +26°C° 0 mm 2 m/S 759 mmHg 83%

    21 Dezember, Donnerstag

    Zeit Temperatur Niederschläge Wind Luftdruck Luftfeuchtigkeit
    00:00 +26°C° 0 mm 2 m/S 759 mmHg 83%
    01:00 +25°C° 0 mm 1 m/S 758 mmHg 83%
    02:00 +26°C° 0 mm 1 m/S 758 mmHg 82%
    03:00 +26°C° 0 mm 1 m/S 758 mmHg 82%
    04:00 +26°C° 0 mm 1 m/S 758 mmHg 81%
    05:00 +26°C° 0 mm 1 m/S 758 mmHg 81%
    06:00 +26°C° 0 mm 1 m/S 758 mmHg 80%
    07:00 +26°C° 0 mm 1 m/S 758 mmHg 80%
    08:00 +28°C° 0 mm 2 m/S 759 mmHg 73%
    09:00 +29°C° 0 mm 2 m/S 759 mmHg 65%
    10:00 +31°C° 0 mm 3 m/S 759 mmHg 58%
    11:00 +33°C° 0 mm 4 m/S 758 mmHg 54%
    12:00 +34°C° 0 mm 5 m/S 758 mmHg 51%
    13:00 +35°C° 0 mm 6 m/S 757 mmHg 47%
    14:00 +34°C° 0 mm 6 m/S 757 mmHg 49%
    15:00 +34°C° 0 mm 6 m/S 757 mmHg 51%
    16:00 +33°C° 0 mm 6 m/S 756 mmHg 53%
    17:00 +30°C° 0 mm 5 m/S 757 mmHg 58%
    18:00 +29°C° 0 mm 4 m/S 757 mmHg 62%
    19:00 +28°C° 0 mm 4 m/S 758 mmHg 67%
    20:00 +27°C° 0 mm 3 m/S 758 mmHg 69%
    21:00 +27°C° 0 mm 3 m/S 759 mmHg 72%
    22:00 +26°C° 0 mm 2 m/S 759 mmHg 74%
    23:00 +26°C° 0 mm 2 m/S 759 mmHg 76%

    22 Dezember, Freitag

    Zeit Temperatur Niederschläge Wind Luftdruck Luftfeuchtigkeit
    00:00 +26°C° 0 mm 2 m/S 759 mmHg 77%
    01:00 +25°C° 0 mm 2 m/S 758 mmHg 78%
    02:00 +25°C° 0 mm 2 m/S 758 mmHg 80%
    03:00 +25°C° 0 mm 2 m/S 758 mmHg 82%
    04:00 +25°C° 0 mm 2 m/S 758 mmHg 83%
    05:00 +25°C° 0 mm 2 m/S 758 mmHg 83%
    06:00 +25°C° 0 mm 2 m/S 758 mmHg 83%
    07:00 +25°C° 0 mm 2 m/S 759 mmHg 82%
    08:00 +27°C° 0 mm 2 m/S 759 mmHg 73%
    09:00 +28°C° 0 mm 2 m/S 758 mmHg 65%
    10:00 +30°C° 0 mm 3 m/S 758 mmHg 56%
    11:00 +33°C° 0 mm 4 m/S 758 mmHg 51%
    12:00 +34°C° 0 mm 5 m/S 757 mmHg 46%
    13:00 +36°C° 0 mm 6 m/S 756 mmHg 40%
    14:00 +35°C° 0 mm 6 m/S 756 mmHg 42%
    15:00 +34°C° 0 mm 6 m/S 756 mmHg 44%
    16:00 +33°C° 0 mm 6 m/S 755 mmHg 46%
    17:00 +32°C° 0 mm 6 m/S 755 mmHg 51%
    18:00 +29°C° 0 mm 6 m/S 756 mmHg 56%
    19:00 +28°C° 0 mm 5 m/S 756 mmHg 61%
    20:00 +27°C° 0 mm 5 m/S 757 mmHg 63%
    21:00 +27°C° 0 mm 5 m/S 757 mmHg 65%
    22:00 +26°C° 0 mm 4 m/S 758 mmHg 66%
    23:00 +26°C° 0 mm 4 m/S 757 mmHg 68%
    Mehr zeigen